Weather History for Kandahar, Afghanistan

Change the Weather History Date:

Friday, January 11, 2013

  Actual Average Record
Temperature  
Mean Temperature 60 °F -  
Max Temperature 71 °F 56 °F - ()
Min Temperature 50 °F 33 °F - ()
Degree Days  
Heating Degree Days 4    
Growing Degree Days 10 (Base 50)    
Moisture  
Dew Point 43 °F    
Average Humidity 59    
Maximum Humidity 82    
Minimum Humidity 33    
Precipitation  
Precipitation 0.00 in 0.07 in - ()
Sea Level Pressure  
Sea Level Pressure 29.90 in    
Wind  
Wind Speed 14 mph ()    
Max Wind Speed 23 mph    
Max Gust Speed 37 mph    
Visibility 5.5 miles    
Events Rain    
T = Trace of Precipitation, MM = Missing Value Source: Averaged Metar Reports

Daily Weather History Graph

Daily Weather History Graph

Search for Another Location

Airport:

Trip Planner

Search our weather history database for the weather conditions in past years. The results will help you decide how hot, cold, wet, or windy it might be!

Date:

Astronomy

Jan. 11, 2013 Rise Set
Actual Time 7:06 AM AFT 5:22 PM AFT
Civil Twilight 6:40 AM AFT 5:48 PM AFT
Nautical Twilight 6:10 AM AFT 6:18 PM AFT
Astronomical Twilight 5:41 AM AFT 6:48 PM AFT
Moon 6:19 AM AFT (1/11) 5:07 PM AFT (1/11)
Length of Visible Light 11h 08m
Length of Day
10h 15m
Waning Crescent, 0% of the Moon is Illuminated
Jan 11
Waning Crescent
Jan 12
New
Jan 19
First Quarter
Jan 27
Full
Feb 3
Last Quarter

Hourly Weather History & Observations

Time (AFT) Temp. Dew Point Humidity Pressure Visibility Wind Dir Wind Speed Gust Speed Precip Events Conditions
12:20 AM 50.0 °F 39.2 °F 66% 30.00 in 6.2 mi NE 20.7 mph 25.3 mph N/A   Mostly Cloudy
1:20 AM 50.0 °F 39.2 °F 66% 29.99 in 6.2 mi NE 23.0 mph 27.6 mph N/A   Mostly Cloudy
2:20 AM 50.0 °F 39.2 °F 66% 29.99 in 6.2 mi NE 19.6 mph 24.2 mph N/A   Mostly Cloudy
3:20 AM 50.0 °F 39.2 °F 66% 29.98 in 6.2 mi ENE 18.4 mph 25.3 mph N/A   Mostly Cloudy
4:20 AM 50.0 °F 39.2 °F 66% 29.97 in 6.2 mi ENE 18.4 mph 24.2 mph N/A   Mostly Cloudy
5:20 AM 50.0 °F 39.2 °F 66% 29.96 in 6.2 mi NE 13.8 mph 18.4 mph N/A   Mostly Cloudy
6:20 AM 50.0 °F 39.2 °F 66% 29.98 in 6.2 mi ENE 15.0 mph 19.6 mph N/A   Mostly Cloudy
7:20 AM 50.0 °F 39.2 °F 66% 30.01 in 6.2 mi ENE 13.8 mph 20.7 mph N/A   Mostly Cloudy
8:20 AM 51.8 °F 39.2 °F 62% 30.02 in 6.2 mi ENE 11.5 mph - N/A   Overcast
9:20 AM 55.4 °F 41.0 °F 58% 30.01 in 6.2 mi NE 11.5 mph - N/A   Mostly Cloudy
10:20 AM 59.0 °F 41.0 °F 51% 29.98 in 6.2 mi ENE 15.0 mph - N/A   Scattered Clouds
11:20 AM 62.6 °F 41.0 °F 45% 29.93 in 6.2 mi NE 12.7 mph - N/A   Scattered Clouds
12:20 PM 66.2 °F 41.0 °F 40% 29.86 in 6.2 mi NE 11.5 mph - N/A   Scattered Clouds
1:20 PM 69.8 °F 41.0 °F 35% 29.81 in 6.2 mi NNE 3.5 mph - N/A   Scattered Clouds
2:20 PM 71.6 °F 41.0 °F 33% 29.78 in 6.2 mi ENE 8.1 mph - N/A   Mostly Cloudy
3:20 PM 69.8 °F 41.0 °F 35% 29.78 in 6.2 mi North 5.8 mph - N/A   Mostly Cloudy
3:43 PM 68.0 °F 44.6 °F 43% 29.78 in 6.2 mi NE 10.4 mph - N/A Rain Light Rain
4:20 PM 66.2 °F 46.4 °F 49% 29.80 in 6.2 mi ENE 10.4 mph - N/A   Mostly Cloudy
4:42 PM 68.0 °F 41.0 °F 37% 29.81 in 1.2 mi SW 16.1 mph 27.6 mph N/A   Widespread Dust
5:20 PM 64.4 °F 46.4 °F 52% 29.84 in 0.2 mi SSW 18.4 mph 28.8 mph N/A Rain Light Rain
5:28 PM 59.0 °F 50.0 °F 72% 29.85 in 1.2 mi SSW 23.0 mph 36.8 mph N/A Rain Light Blowing Widespread Dust
5:41 PM 59.0 °F 50.0 °F 72% 29.85 in 3.7 mi SSW 21.9 mph 28.8 mph N/A Rain Light Rain
6:20 PM 59.0 °F 51.8 °F 77% 29.88 in 5.0 mi SSW 20.7 mph 29.9 mph N/A Rain Light Rain
7:20 PM 57.2 °F 51.8 °F 82% 29.86 in 6.2 mi SSE 16.1 mph - N/A   Mostly Cloudy
8:20 PM 59.0 °F 50.0 °F 72% 29.84 in 6.2 mi South 11.5 mph 20.7 mph N/A   Scattered Clouds
9:20 PM 57.2 °F 48.2 °F 72% 29.85 in 6.2 mi South 9.2 mph - N/A   Partly Cloudy
10:20 PM 57.2 °F 48.2 °F 72% 29.84 in 6.2 mi South 9.2 mph - N/A   Partly Cloudy
11:20 PM 59.0 °F 46.4 °F 63% 29.82 in 6.2 mi South 17.3 mph 26.5 mph N/A   Clear